Location: Krasnoyarskiy Pitomnik
(51.1333°N, 71.6167°E)
Time: 00:02:40
(UTC+00:00)

deb Explorer IX - Pass Details

Date: 21 April 2024
Orbit: 513 x 891 km, 38.7° (Epoch: 21 May)

Event Time Altitude Azimuth Distance (km) Brightness Sun altitude
Rises 07:50:23 0° 243° (WSW) 3,453 ? 50.2°
Reaches altitude 10° 07:53:18 10° 231° (SW) 2,550 ? 50.1°
Maximum altitude 07:58:14 26° 178° (S) 1,716 ? 49.8°
Drops below altitude 10° 08:03:13 10° 125° (SE) 2,576 ? 49.6°
Sets 08:06:12 0° 113° (ESE) 3,496 ? 49.4°
